Wind_Speed
19 19 19 19 20 22 23 26 28 25 21 21 23 25 30 33 35 38 43 46 48 48 46 42 39 39 44 48 53 59 56 50 51 45 53 55 46 45
15 15 16 17 18 20 22 25 26 27 25 23 23 23 27 30 33 34 37 40 44 49 49 44 40 38 39 43 46 53 54 55 52 53 45 49 55 51
15 15 15 16 16 18 19 21 23 23 22 21 23 25 26 27 28 31 31 32 35 39 44 41 39 37 36 38 42 43 36 32 43 53 50 42 57 55
14 14 15 15 16 16 17 18 20 21 21 20 21 22 24 26 27 23 21 21 24 27 31 33 27 28 27 33 39 42 40 38 37 38 43 48 44 59
16 17 17 18 17 17 18 19 19 20 21 22 22 24 25 26 20 21 17 15 20 20 20 24 27 21 20 27 33 39 40 50 42 49 51 51 49 56
19 19 19 19 19 20 20 20 20 20 20 21 21 20 21 22 30 18 15 12 10 14 22 23 25 29 30 32 35 38 23 33 42 43 44 49 48 44
21 22 22 22 22 22 22 21 21 21 21 21 21 20 18 17 16 23 26 15 8 11 14 13 17 20 28 24 30 45 46 46 29 19 20 43 47 44
22 23 24 24 24 24 25 24 24 24 24 24 24 23 22 23 24 23 19 19 18 13 5 10 15 16 21 27 29 32 38 35 36 44 41 29 17 32
21 22 23 23 23 23 24 25 26 26 26 27 27 25 26 27 27 26 27 26 23 18 20 18 15 14 17 21 23 30 27 33 36 33 34 39 42 41
21 23 23 23 23 24 24 25 24 24 24 25 25 26 27 28 31 32 30 30 27 25 21 17 15 16 15 15 20 22 24 33 38 39 34 35 40 40
21 22 23 24 24 23 24 25 26 26 26 26 27 29 30 30 29 27 25 23 21 22 22 22 19 19 17 17 17 16 22 28 32 33 38 41 41 41
22 23 23 23 23 24 24 25 25 25 26 27 28 28 30 31 32 31 30 29 28 25 24 22 21 18 16 20 22 23 22 20 25 31 36 36 38 43
23 25 26 26 26 26 25 26 27 28 28 28 27 28 29 29 31 31 31 30 30 31 31 29 28 25 24 23 21 23 24 25 26 27 28 31 35 39
27 28 29 29 29 29 29 29 30 30 31 31 30 29 28 28 29 30 31 32 31 31 33 33 33 33 32 28 28 23 25 25 25 26 30 31 31 32
29 30 30 31 32 32 32 31 32 32 32 32 32 32 32 31 31 31 31 31 32 31 31 31 32 33 35 35 34 33 30 27 28 25 26 30 32 33
32 33 33 33 35 34 34 34 34 33 33 33 33 33 33 32 32 31 29 28 28 30 32 31 31 32 32 35 37 36 36 37 33 31 25 26 29 31
33 34 35 36 37 36 34 34 34 34 34 34 33 32 32 32 32 32 32 32 33 32 30 29 31 31 32 34 34 38 38 36 37 38 35 28 28 30
35 35 35 36 37 35 34 35 34 35 35 35 35 35 35 34 34 34 35 36 36 37 37 35 33 29 27 25 32 35 36 40 38 38 39 39 30 30
37 37 37 37 37 35 35 34 35 35 35 35 36 36 36 37 38 38 38 38 36 37 38 39 38 37 36 33 26 33 32 34 36 35 37 36 38 32
39 38 38 38 36 36 36 35 35 35 35 36 36 36 37 38 39 40 41 42 41 39 37 37 38 38 39 39 39 29 33 32 33 34 36 35 35 32
40 39 38 37 36 37 35 35 34 35 35 36 37 37 38 39 40 41 41 42 42 42 40 37 38 39 40 40 38 36 30 33 35 36 36 40 40 33
39 38 38 38 37 35 34 33 33 34 36 37 37 39 40 40 41 41 41 43 43 43 43 40 39 39 39 41 40 40 39 32 29 30 32 39 43 44
39 40 38 36 34 32 32 32 32 33 36 38 40 40 40 40 41 41 41 41 42 43 43 42 39 39 39 40 40 38 38 38 37 27 22 31 36 40
Wind_Direction
308 308 309 310 310 310 311 312 315 321 323 320 314 307 298 290 282 273 268 268 268 267 265 261 255 253 253 252 246 248 248 250 250 254 246 241 232 233
336 330 327 324 321 320 320 320 322 326 330 328 324 327 313 300 290 282 275 268 266 267 266 263 259 252 249 250 249 249 252 250 249 251 256 250 235 242
0 354 350 348 345 342 338 334 332 332 333 329 331 337 330 318 300 291 284 278 266 264 266 264 260 256 250 244 245 247 248 250 248 248 247 252 249 244
17 14 11 9 6 1 355 348 343 340 340 337 336 342 351 333 317 305 296 289 277 269 267 267 270 258 248 249 245 240 238 240 244 248 252 251 254 242
28 26 22 18 12 10 7 359 352 347 346 344 343 345 341 354 328 311 296 279 269 267 266 266 262 262 252 246 240 246 247 243 246 245 241 248 257 255
27 27 26 24 19 14 12 8 2 360 359 358 352 351 341 343 356 346 284 269 266 268 257 262 265 252 254 260 239 229 231 245 233 237 246 244 248 251
27 24 22 20 19 17 14 11 7 6 7 6 5 3 4 356 351 6 5 353 287 266 271 278 265 258 261 255 257 237 244 249 218 211 238 243 246 241
21 19 15 13 11 10 9 7 5 5 3 4 2 4 7 12 12 15 11 6 359 352 338 284 269 267 263 265 248 249 256 255 255 262 257 258 257 244
15 13 9 5 4 5 3 1 0 359 359 360 358 359 2 4 11 13 10 12 6 4 356 345 338 306 279 269 270 262 255 261 259 253 249 257 270 268
8 5 2 360 358 356 355 354 353 352 354 356 356 358 1 3 2 3 7 2 355 351 350 339 324 322 319 301 276 269 261 259 257 257 249 246 250 255
1 358 355 352 349 348 346 345 345 345 347 349 351 353 355 354 355 355 350 348 349 350 349 347 344 330 314 306 303 292 272 263 260 258 248 243 247 248
352 351 348 347 342 339 337 337 338 340 341 344 347 347 345 344 345 345 344 343 342 341 343 340 338 335 330 323 311 301 298 288 269 262 262 257 249 245
344 344 345 342 340 335 332 331 333 334 338 340 341 341 340 338 337 336 336 337 338 338 338 337 334 333 330 325 318 311 304 294 286 280 273 265 262 259
338 337 337 337 335 333 331 330 331 332 334 336 336 334 333 332 331 331 332 333 334 334 333 332 330 327 324 320 316 311 309 302 297 288 280 277 270 263
332 330 329 331 331 329 328 328 328 330 331 332 330 329 329 328 329 330 330 330 329 328 327 325 323 323 320 318 316 311 306 302 299 293 289 283 274 270
326 326 325 326 327 326 325 326 326 326 327 327 326 325 325 325 324 323 323 322 323 323 322 320 319 316 313 312 310 308 306 303 301 299 294 288 283 278
320 321 321 322 324 324 322 321 321 322 323 323 322 322 321 321 321 321 321 321 321 318 316 315 315 313 311 307 303 302 301 300 299 298 295 293 288 282
316 317 317 318 319 319 318 317 317 318 318 318 319 319 320 320 320 321 322 323 322 321 318 315 311 306 302 298 297 294 293 294 293 293 293 290 287 282
313 314 314 316 316 315 314 314 314 315 315 316 316 318 319 319 320 320 321 322 321 320 319 317 315 312 308 305 306 303 298 291 288 288 290 287 285 281
311 311 312 313 312 312 312 312 312 313 314 315 316 317 318 318 319 319 319 319 319 318 319 318 316 315 312 310 306 308 308 303 295 289 288 286 285 284
308 309 310 310 308 307 308 309 310 311 312 314 315 317 317 318 319 318 318 317 316 315 315 315 314 313 311 309 307 304 303 303 305 301 296 289 286 280
305 306 306 305 304 304 306 307 309 311 313 314 316 316 316 317 317 316 315 314 314 313 313 313 312 311 309 307 306 305 302 296 292 296 295 294 295 293
303 303 303 302 302 303 304 306 310 312 313 314 315 314 314 314 313 313 312 311 310 310 310 310 310 309 309 307 306 306 303 302 300 287 272 279 284 288
Height
3005 3003 3001 2998 2996 2994 2991 2988 2985 2986 2987 2984 2980 2978 2973 2968 2966 2964 2962 2961 2959 2961 2963 2968 2973 2977 2979 2982 2988 2991 2999 3007 3013 3015 3019 3024 3030 3037
3002 3000 2998 2996 2993 2991 2988 2985 2982 2979 2978 2977 2974 2972 2966 2961 2956 2953 2951 2950 2949 2947 2949 2953 2958 2964 2967 2971 2973 2977 2982 2990 2998 3001 3006 3012 3019 3025
3001 2999 2996 2994 2992 2989 2986 2983 2980 2977 2975 2973 2968 2965 2961 2955 2950 2944 2941 2939 2939 2938 2937 2939 2944 2949 2955 2959 2963 2967 2972 2976 2984 2990 2995 2999 3003 3008
3002 2999 2996 2994 2991 2988 2986 2983 2979 2976 2973 2969 2966 2962 2958 2951 2943 2939 2936 2934 2933 2932 2930 2929 2933 2937 2942 2947 2951 2957 2963 2968 2971 2976 2980 2987 2990 2994
3002 2999 2996 2993 2991 2988 2985 2982 2978 2974 2971 2966 2962 2957 2953 2951 2944 2936 2933 2932 2930 2929 2926 2926 2927 2930 2932 2936 2941 2946 2949 2956 2960 2964 2969 2976 2979 2982
3002 2999 2996 2994 2991 2988 2985 2981 2978 2974 2970 2966 2961 2957 2952 2947 2941 2936 2931 2928 2926 2924 2923 2922 2921 2922 2925 2926 2931 2934 2939 2944 2949 2952 2957 2961 2965 2968
3003 2999 2996 2993 2990 2988 2985 2982 2978 2974 2969 2965 2961 2957 2953 2948 2942 2934 2929 2925 2923 2921 2919 2917 2917 2917 2919 2919 2921 2924 2928 2931 2934 2935 2941 2947 2951 2954
3003 3000 2996 2993 2990 2987 2984 2980 2977 2973 2969 2964 2959 2955 2951 2946 2940 2933 2929 2927 2922 2919 2914 2914 2912 2912 2912 2914 2916 2917 2919 2921 2924 2926 2930 2933 2935 2941
3003 3000 2997 2993 2990 2987 2983 2979 2975 2971 2967 2963 2958 2954 2949 2943 2939 2934 2928 2923 2921 2918 2915 2911 2909 2907 2907 2907 2907 2910 2910 2912 2914 2916 2918 2922 2927 2934
3003 2999 2996 2992 2989 2986 2982 2979 2975 2971 2967 2962 2958 2953 2947 2942 2936 2930 2927 2923 2920 2916 2913 2911 2908 2905 2903 2902 2902 2902 2903 2903 2905 2908 2912 2913 2917 2920
3002 2998 2995 2991 2987 2984 2981 2978 2973 2969 2964 2960 2954 2948 2944 2940 2936 2932 2930 2927 2923 2918 2912 2908 2906 2902 2901 2899 2898 2897 2896 2897 2898 2899 2900 2903 2903 2906
3001 2998 2994 2991 2986 2983 2979 2976 2972 2968 2963 2958 2952 2947 2943 2938 2933 2929 2925 2921 2917 2915 2911 2908 2904 2900 2898 2892 2890 2890 2890 2890 2889 2889 2889 2889 2891 2894
2999 2996 2992 2988 2984 2981 2977 2973 2968 2964 2960 2955 2951 2946 2941 2936 2931 2927 2922 2918 2913 2908 2903 2901 2897 2896 2892 2890 2888 2885 2883 2882 2882 2881 2881 2881 2881 2880
2995 2991 2988 2984 2980 2976 2972 2968 2963 2958 2954 2950 2946 2942 2939 2934 2929 2924 2919 2914 2910 2906 2901 2895 2892 2888 2885 2884 2881 2881 2877 2876 2874 2873 2871 2870 2870 2870
2990 2986 2982 2978 2974 2969 2965 2961 2957 2952 2948 2944 2940 2935 2932 2928 2924 2920 2915 2910 2906 2902 2898 2894 2889 2885 2880 2876 2873 2871 2870 2870 2867 2867 2864 2861 2860 2858
2984 2980 2976 2972 2968 2964 2959 2954 2950 2946 2942 2938 2934 2929 2925 2921 2917 2914 2911 2908 2904 2899 2893 2890 2886 2881 2878 2871 2866 2864 2861 2857 2858 2856 2858 2854 2850 2848
2979 2975 2970 2966 2961 2957 2953 2948 2944 2940 2936 2932 2928 2924 2920 2915 2911 2906 2902 2898 2894 2892 2890 2886 2880 2875 2870 2866 2862 2855 2853 2851 2847 2844 2844 2846 2841 2838
2973 2969 2965 2960 2956 2951 2946 2942 2938 2934 2929 2925 2920 2916 2912 2908 2904 2899 2894 2889 2885 2880 2876 2874 2871 2869 2866 2862 2854 2850 2846 2840 2839 2836 2831 2830 2833 2830
2965 2961 2957 2952 2948 2944 2940 2936 2931 2927 2922 2917 2913 2908 2904 2899 2894 2890 2885 2881 2877 2872 2866 2861 2858 2854 2852 2849 2850 2837 2837 2834 2829 2827 2821 2820 2818 2820
2956 2952 2948 2944 2939 2935 2931 2927 2923 2918 2914 2909 2905 2901 2896 2892 2887 2882 2876 2871 2866 2863 2860 2854 2848 2843 2838 2835 2831 2835 2825 2823 2820 2817 2813 2811 2809 2810
2947 2943 2939 2935 2931 2927 2923 2919 2915 2911 2906 2902 2897 2892 2888 2883 2878 2873 2868 2863 2857 2853 2850 2846 2841 2835 2830 2826 2823 2821 2822 2814 2808 2805 2802 2797 2795 2798
2938 2934 2930 2926 2922 2919 2915 2911 2907 2902 2898 2893 2889 2884 2879 2874 2869 2865 2859 2854 2849 2844 2840 2836 2832 2828 2822 2816 2812 2808 2805 2807 2806 2800 2795 2787 2780 2777
2929 2925 2921 2917 2914 2910 2906 2903 2899 2895 2890 2885 2880 2876 2871 2866 2860 2855 2851 2845 2839 2835 2829 2826 2823 2818 2813 2807 2802 2799 2795 2791 2788 2793 2793 2782 2778 2773